Location: Unspecified
(0.0000°N, 0.0000°E)
Time: 19:09:51
(UTC+00:00)

BlueWalker 3 - Pass Details

Date: 31 May 2023
Orbit: 494 x 513 km, 53.2° (Epoch: 05 June)

Event Time Altitude Azimuth Distance (km) Brightness Sun altitude
Rises 05:26:16 0° 325° (NW) 2,603 5.4 -7.3°
Reaches altitude 10° 05:28:27 10° 324° (NW) 1,721 4.5 -6.8°
Maximum altitude 05:32:21 82° 239° (WSW) 518 1.9 -5.9°
Drops below altitude 10° 05:36:16 10° 149° (SSE) 1,729 4.8 -5.0°
Sets 05:38:28 0° 148° (SSE) 2,616 5.7 -4.5°
